Location: *
(2.5500°S, 65.9667°W)
Time: 11:53:40
(UTC+00:00)

BLOCK DM-SL R/B - Pass Details

Date: 26 October 2021
Orbit: 870 x 35783 km, 0.6° (Epoch: 28 November)

Event Time Altitude Azimuth Distance (km) Brightness Sun altitude
Rises 22:21:13 0° 275° (W) 3,443 8.1 -2.7°
Reaches altitude 10° 22:23:02 10° 277° (W) 2,610 7.2 -3.1°
Maximum altitude 22:28:07 74° 3° (N) 1,428 4.4 -4.4°
Drops below altitude 10° 22:46:34 10° 87° (E) 8,589 7.7 -8.9°
Enters shadow 22:48:36 - 87° (E) 9,330 7.9 -9.4°
